TimeCST,TemperatureF,Dew PointF,Humidity,Sea Level PressureIn,VisibilityMPH,Wind Direction,Wind SpeedMPH,Gust SpeedMPH,PrecipitationIn,Events,Conditions,WindDirDegrees,DateUTC
12:15 AM,19.0,14.9,84,30.22,10.0,North,12.7,-,N/A,,Overcast,350,2014-03-08 06:15:00
12:35 AM,18.5,14.9,86,30.22,10.0,North,8.1,-,N/A,,Overcast,360,2014-03-08 06:35:00
12:55 AM,18.1,14.4,85,30.22,10.0,Calm,Calm,-,N/A,,Mostly Cloudy,0,2014-03-08 06:55:00
1:15 AM,17.6,14.0,86,30.23,10.0,Calm,Calm,-,N/A,,Mostly Cloudy,0,2014-03-08 07:15:00
1:35 AM,17.1,13.6,86,30.23,10.0,Calm,Calm,-,N/A,,Overcast,0,2014-03-08 07:35:00
1:55 AM,16.7,13.6,88,30.23,10.0,North,8.1,-,N/A,,Overcast,360,2014-03-08 07:55:00
2:15 AM,16.7,13.6,88,30.23,10.0,North,6.9,-,N/A,,Mostly Cloudy,360,2014-03-08 08:15:00
2:35 AM,16.7,13.8,88,30.23,10.0,North,10.4,-,N/A,,Scattered Clouds,360,2014-03-08 08:35:00
2:55 AM,16.7,13.5,87,30.23,10.0,North,9.2,16.1,N/A,,Clear,360,2014-03-08 08:55:00
3:15 AM,15.8,12.7,88,30.23,10.0,Calm,Calm,-,N/A,,Clear,0,2014-03-08 09:15:00
3:35 AM,15.4,12.2,87,30.23,10.0,North,11.5,18.4,N/A,,Clear,10,2014-03-08 09:35:00
3:55 AM,14.9,11.7,87,30.24,10.0,North,6.9,-,N/A,,Clear,10,2014-03-08 09:55:00
4:15 AM,14.4,11.1,87,30.25,10.0,North,10.4,-,N/A,,Clear,360,2014-03-08 10:15:00
4:35 AM,13.6,10.4,87,30.26,10.0,North,9.2,-,N/A,,Clear,10,2014-03-08 10:35:00
4:55 AM,13.1,10.0,88,30.26,10.0,North,9.2,-,N/A,,Clear,10,2014-03-08 10:55:00
5:15 AM,12.7,9.5,87,30.27,10.0,NNE,5.8,-,N/A,,Clear,30,2014-03-08 11:15:00
5:35 AM,12.2,9.3,88,30.28,10.0,North,5.8,-,N/A,,Clear,360,2014-03-08 11:35:00
5:55 AM,11.8,8.6,87,30.28,10.0,North,8.1,-,N/A,,Clear,350,2014-03-08 11:55:00
6:15 AM,11.7,8.6,88,30.28,10.0,North,9.2,-,N/A,,Clear,360,2014-03-08 12:15:00
6:35 AM,11.3,8.4,88,30.29,10.0,North,6.9,-,N/A,,Clear,360,2014-03-08 12:35:00
6:55 AM,10.8,7.9,88,30.30,10.0,North,5.8,-,N/A,,Clear,350,2014-03-08 12:55:00
7:15 AM,10.4,7.7,89,30.30,10.0,North,6.9,-,N/A,,Clear,360,2014-03-08 13:15:00
7:35 AM,10.6,7.7,88,30.30,10.0,North,6.9,-,N/A,,Clear,360,2014-03-08 13:35:00
7:55 AM,12.0,9.0,88,30.31,10.0,North,9.2,-,N/A,,Clear,360,2014-03-08 13:55:00
8:15 AM,12.4,8.6,85,30.31,10.0,North,9.2,-,N/A,,Clear,360,2014-03-08 14:15:00
8:35 AM,13.1,9.1,84,30.32,10.0,North,10.4,-,N/A,,Clear,360,2014-03-08 14:35:00
8:55 AM,14.4,9.5,81,30.32,10.0,North,10.4,-,N/A,,Clear,360,2014-03-08 14:55:00
9:15 AM,16.0,10.4,79,30.32,10.0,NNE,4.6,-,N/A,,Clear,20,2014-03-08 15:15:00
9:35 AM,19.0,11.8,74,30.33,10.0,North,3.5,-,N/A,,Clear,10,2014-03-08 15:35:00
9:55 AM,21.9,12.9,68,30.33,10.0,NNW,3.5,-,N/A,,Clear,340,2014-03-08 15:55:00
10:15 AM,24.8,13.1,61,30.34,10.0,Calm,Calm,-,N/A,,Clear,0,2014-03-08 16:15:00
10:35 AM,25.7,13.1,59,30.34,10.0,Calm,Calm,-,N/A,,Clear,0,2014-03-08 16:35:00
10:55 AM,26.1,13.8,60,30.34,10.0,North,5.8,-,N/A,,Clear,10,2014-03-08 16:55:00
11:15 AM,26.2,14.7,62,30.34,10.0,North,5.8,-,N/A,,Clear,10,2014-03-08 17:15:00
11:35 AM,26.6,15.8,64,30.34,10.0,NNE,6.9,-,N/A,,Clear,30,2014-03-08 17:35:00
11:55 AM,27.5,16.5,63,30.34,10.0,NNE,5.8,-,N/A,,Clear,30,2014-03-08 17:55:00
12:15 PM,29.3,17.1,60,30.33,10.0,North,5.8,-,N/A,,Clear,360,2014-03-08 18:15:00
12:35 PM,30.4,18.3,61,30.33,10.0,Calm,Calm,-,N/A,,Clear,0,2014-03-08 18:35:00
12:55 PM,32.2,16.9,53,30.32,10.0,WNW,3.5,-,N/A,,Clear,300,2014-03-08 18:55:00
1:15 PM,31.3,17.4,57,30.31,10.0,West,6.9,-,N/A,,Clear,280,2014-03-08 19:15:00
1:35 PM,29.8,16.9,59,30.30,10.0,WNW,8.1,-,N/A,,Clear,300,2014-03-08 19:35:00
1:55 PM,29.8,18.1,62,30.30,10.0,West,6.9,-,N/A,,Clear,280,2014-03-08 19:55:00
2:15 PM,29.8,17.6,60,30.30,10.0,West,8.1,-,N/A,,Clear,280,2014-03-08 20:15:00
2:35 PM,29.3,17.1,60,30.30,10.0,West,6.9,-,N/A,,Clear,270,2014-03-08 20:35:00
2:55 PM,29.8,17.8,61,30.29,10.0,NNW,5.8,-,N/A,,Clear,330,2014-03-08 20:55:00
3:15 PM,30.6,18.1,60,30.29,10.0,WNW,5.8,-,N/A,,Clear,290,2014-03-08 21:15:00
3:35 PM,30.7,17.8,59,30.30,10.0,NW,5.8,-,N/A,,Clear,320,2014-03-08 21:35:00
3:55 PM,30.2,18.3,61,30.30,10.0,NW,3.5,-,N/A,,Clear,320,2014-03-08 21:55:00
4:15 PM,30.6,18.5,61,30.30,10.0,NNW,6.9,-,N/A,,Clear,330,2014-03-08 22:15:00
4:35 PM,30.6,19.0,62,30.29,10.0,WNW,6.9,-,N/A,,Clear,290,2014-03-08 22:35:00
4:55 PM,30.0,19.2,64,30.28,10.0,West,5.8,-,N/A,,Clear,280,2014-03-08 22:55:00
5:15 PM,30.0,19.9,66,30.28,10.0,WNW,4.6,-,N/A,,Clear,300,2014-03-08 23:15:00
5:35 PM,29.8,19.2,65,30.29,10.0,Calm,Calm,-,N/A,,Clear,0,2014-03-08 23:35:00
5:55 PM,29.1,18.9,66,30.28,10.0,Calm,Calm,-,N/A,,Clear,0,2014-03-08 23:55:00
6:15 PM,28.2,18.0,65,30.28,10.0,Calm,Calm,-,N/A,,Clear,0,2014-03-09 00:15:00
6:35 PM,25.9,15.6,65,30.28,10.0,Calm,Calm,-,N/A,,Clear,0,2014-03-09 00:35:00
6:55 PM,23.7,14.0,66,30.28,10.0,Calm,Calm,-,N/A,,Clear,0,2014-03-09 00:55:00
7:15 PM,21.9,13.5,70,30.29,10.0,Calm,Calm,-,N/A,,Clear,0,2014-03-09 01:15:00
7:35 PM,20.3,10.0,65,30.27,10.0,Calm,Calm,-,N/A,,Clear,0,2014-03-09 01:35:00
7:55 PM,19.4,10.4,68,30.27,10.0,Calm,Calm,-,N/A,,Clear,0,2014-03-09 01:55:00
8:15 PM,19.4,14.5,81,30.27,10.0,Calm,Calm,-,N/A,,Clear,0,2014-03-09 02:15:00
8:35 PM,18.1,13.8,83,30.27,10.0,Calm,Calm,-,N/A,,Clear,0,2014-03-09 02:35:00
8:55 PM,19.0,15.8,87,30.26,10.0,Calm,Calm,-,N/A,,Clear,0,2014-03-09 02:55:00
9:15 PM,18.7,15.6,88,30.25,10.0,South,5.8,-,N/A,,Clear,170,2014-03-09 03:15:00
9:35 PM,18.5,15.8,89,30.25,10.0,Calm,Calm,-,N/A,,Clear,0,2014-03-09 03:35:00
9:55 PM,17.2,14.2,88,30.26,10.0,Calm,Calm,-,N/A,,Clear,0,2014-03-09 03:55:00
10:15 PM,16.3,13.8,90,30.25,10.0,Calm,Calm,-,N/A,,Clear,0,2014-03-09 04:15:00
10:35 PM,16.9,14.7,91,30.24,10.0,South,5.8,-,N/A,,Clear,180,2014-03-09 04:35:00
10:55 PM,17.2,14.9,91,30.23,10.0,South,3.5,-,N/A,,Clear,180,2014-03-09 04:55:00
11:15 PM,18.3,16.2,91,30.22,10.0,South,5.8,-,N/A,,Clear,180,2014-03-09 05:15:00
11:35 PM,18.3,16.0,91,30.21,10.0,South,5.8,-,N/A,,Clear,170,2014-03-09 05:35:00
11:55 PM,19.4,17.1,91,30.21,10.0,SSW,5.8,-,N/A,,Clear,200,2014-03-09 05:55:00